Weather reports worldwide

Advertisment
Ueckermünde, Germany (10193): temperature & dewpoint: 10.08.2018 18:00:00 - 16.08.2018 18:00:00 (CEST)Ueckermünde, Germany (10193): temperature 5cm & temperature -5cm: 10.08.2018 18:00:00 - 16.08.2018 18:00:00 (CEST)Ueckermünde, Germany (10193): temperature -20cm & temperature -100cm: 10.08.2018 18:00:00 - 16.08.2018 18:00:00 (CEST)Ueckermünde, Germany (10193): wind speed & gusts: 10.08.2018 18:00:00 - 16.08.2018 18:00:00 (CEST)Ueckermünde, Germany (10193): wind direction: 10.08.2018 18:00:00 - 16.08.2018 18:00:00 (CEST)Ueckermünde, Germany (10193): reduced air pressure: 10.08.2018 18:00:00 - 16.08.2018 18:00:00 (CEST)Ueckermünde, Germany (10193): visibility: 10.08.2018 18:00:00 - 16.08.2018 18:00:00 (CEST)Ueckermünde, Germany (10193): sunshine duration: 10.08.2018 18:00:00 - 16.08.2018 18:00:00 (CEST)Ueckermünde, Germany (10193): precipitation: 10.08.2018 18:00:00 - 16.08.2018 18:00:00 (CEST)
Date & Time tt [°C] td [°C] tt 5cm [°C] tt -5cm [°C] tt -20cm [°C] tt -100cm [°C] ff [km/h] ff [kn] fx [km/h] fx [kn] dd ppp [hPa] vv [km] sd [min] rr [mm]
16.08.2018 18:00:00 28,0 11,9 28,9 31,0 25,1 20,0 18 10 30 16 SE 1015,5 23 60 0,0
16.08.2018 17:00:00 28,4 11,9 30,3 32,0 24,6 20,0 14 8 35 19 SSE 1015,7 19 60 0,0
16.08.2018 16:00:00 28,8 12,5 31,7 32,2 24,1 20,0 16 9 31 17 S 1016,1 22 56 0,0
16.08.2018 15:00:00 28,1 12,8 31,5 32,1 23,5 20,0 15 8 32 17 S 1016,8 21 60 0,0
16.08.2018 14:00:00 27,5 13,3 31,3 31,2 22,8 20,1 16 8 28 15 SSE 1017,4 18 60 0,0
16.08.2018 13:00:00 27,4 14,0 31,0 29,4 22,2 20,1 16 8 29 16 SSE 1017,8 26 53 0,0
16.08.2018 12:00:00 25,8 14,0 30,0 27,7 21,6 20,1 13 7 26 14 SSW 1018,3 31 58 0,0
16.08.2018 11:00:00 24,2 14,5 28,4 25,3 21,3 20,1 16 8 23 12 S 1018,7 30 60 0,0
16.08.2018 10:00:00 22,6 15,8 26,0 22,3 21,1 20,1 10 5 16 9 SSW 1018,9 21 34 0,0
16.08.2018 09:00:00 19,5 15,4 20,4 20,5 21,1 20,1 9 5 13 7 SSW 1019,0 23 0 0,0
16.08.2018 08:00:00 18,2 15,1 18,5 19,6 21,2 20,1 9 5 14 7 S 1019,1 23 0 0,0
16.08.2018 07:00:00 17,7 14,9 17,7 19,3 21,3 20,1 9 5 14 7 S 1019,1 23 0 0,0
16.08.2018 06:00:00 17,1 14,8 17,0 19,2 21,5 20,1 8 5 11 6 S 1018,9 23 0 0,0
16.08.2018 05:00:00 17,1 14,6 16,9 19,3 21,6 20,1 6 4 11 6 S 1019,0 25 0 0,0
16.08.2018 04:00:00 17,1 14,5 17,0 19,3 21,8 20,1 9 5 14 7 S 1019,1 26 0 0,0
16.08.2018 03:00:00 17,1 14,5 16,9 19,2 22,1 20,1 10 5 14 7 S 1019,1 24 0 0,0
16.08.2018 02:00:00 14,9 13,6 12,5 19,2 22,3 20,1 6 4 11 6 S 1019,0 25 0 0,0
16.08.2018 01:00:00 17,1 14,9 16,4 19,7 22,6 20,1 7 4 10 5 S 1018,9 33 0 0,0
16.08.2018 00:00:00 15,7 14,2 12,9 20,0 22,9 20,1 6 3 10 5 S 1019,0 28 0 0,0
15.08.2018 23:00:00 16,6 14,3 14,8 21,0 23,2 20,1 5 3 7 4 S 1018,9 24 0 0,0
15.08.2018 22:00:00 16,5 14,6 15,5 21,5 23,5 20,1 3 2 4 2 S 1018,8 30 0 0,0
15.08.2018 21:00:00 18,0 14,6 14,6 22,8 23,6 20,1 0 0 6 3 N 1018,6 39 0 0,0
15.08.2018 20:00:00 21,4 14,7 21,3 24,5 23,7 20,1 4 2 10 6 WNW 1018,0 48 5 0,0
15.08.2018 19:00:00 22,0 15,0 22,7 25,4 23,7 20,1 4 2 18 10 NW 1017,8 40 0 0,0
15.08.2018 18:00:00 22,1 14,5 23,2 25,8 23,6 20,1 8 4 16 8 WNW 1017,7 44 0 0,0
15.08.2018 17:00:00 22,6 14,2 24,2 27,0 23,5 20,1 13 7 26 14 W 1017,6 44 9 0,0
15.08.2018 16:00:00 22,4 14,4 24,7 26,3 23,3 20,1 11 6 22 12 WSW 1017,5 41 0 0,0
15.08.2018 15:00:00 21,8 13,5 23,0 26,6 23,1 20,1 12 7 26 14 W 1017,4 46 6 0,0
15.08.2018 14:00:00 22,0 14,0 24,5 27,3 22,7 20,1 8 5 19 11 WNW 1017,3 52 20 0,0
15.08.2018 13:00:00 21,8 14,2 25,4 26,6 22,4 20,1 10 5 24 13 NW 1017,0 46 20 0,0
15.08.2018 12:00:00 20,7 13,5 23,2 26,1 22,0 20,1 15 8 27 15 WNW 1017,0 54 31 0,0
15.08.2018 11:00:00 20,3 13,3 22,7 25,0 21,7 20,1 17 9 32 17 WNW 1016,7 32 43 0,0
15.08.2018 10:00:00 19,7 14,8 22,5 22,7 21,6 20,1 18 10 34 18 W 1015,8 25 6 0,0
15.08.2018 09:00:00 19,4 15,4 21,6 21,3 21,6 20,1 18 10 29 16 W 1015,2 26 3 0,0
15.08.2018 08:00:00 18,5 15,8 18,9 20,2 21,7 20,1 14 8 31 17 W 1014,5 38 1 0,0
15.08.2018 07:00:00 18,0 16,2 18,1 19,6 21,9 20,1 12 7 28 15 WSW 1014,1 33 0 0,0
15.08.2018 06:00:00 17,9 16,2 17,8 19,7 22,0 20,1 15 8 27 15 W 1013,5 22 0 0,0
15.08.2018 05:00:00 17,8 16,1 17,4 19,8 22,2 20,1 13 7 23 13 W 1013,2 21 0 0,0
15.08.2018 04:00:00 17,9 16,3 17,6 20,0 22,4 20,1 15 8 27 14 WSW 1012,9 16 0 0,0
15.08.2018 03:00:00 18,1 16,4 17,7 20,3 22,7 20,1 13 7 22 12 WSW 1012,5 19 0 0,0
15.08.2018 02:00:00 18,3 16,1 18,1 20,5 22,9 20,1 14 7 23 12 WSW 1012,5 26 0 0,0
15.08.2018 01:00:00 18,3 15,8 17,2 20,9 23,2 20,1 13 7 24 13 W 1012,0 24 0 0,0
15.08.2018 00:00:00 19,1 16,1 18,6 21,4 23,4 20,1 12 6 22 12 WSW 1011,5 27 0 0,0
14.08.2018 23:00:00 19,3 16,1 18,9 21,9 23,7 20,1 11 6 24 13 WSW 1011,0 28 0 0,0
14.08.2018 22:00:00 19,5 16,1 19,0 22,4 24,0 20,1 16 9 27 15 W 1010,7 28 0 0,0
14.08.2018 21:00:00 18,8 16,4 18,1 23,4 24,2 20,1 8 5 28 15 W 1010,3 28 0 0,0
14.08.2018 20:00:00 22,6 14,7 22,3 25,1 24,2 20,2 11 6 26 14 WSW 1009,1 46 0 0,0
14.08.2018 19:00:00 22,8 14,4 22,8 27,0 24,1 20,2 14 7 32 17 WSW 1009,0 43 48 0,0
14.08.2018 18:00:00 24,0 14,9 25,7 27,9 23,9 20,2 20 11 34 18 WSW 1008,7 15 49 0,0
14.08.2018 17:00:00 23,5 14,4 25,6 28,4 23,7 20,2 22 12 40 22 SW 1008,7 20 34 0,0
14.08.2018 16:00:00 24,0 14,5 28,0 28,3 23,3 20,2 24 13 36 19 WSW 1008,6 15 32 0,0
14.08.2018 15:00:00 25,0 14,7 30,2 28,7 22,8 20,2 13 7 34 18 WSW 1008,5 38 41 0,0
14.08.2018 14:00:00 22,6 14,4 26,0 26,3 22,5 20,2 22 12 36 19 SW 1008,7 24 6 0,0
14.08.2018 13:00:00 22,2 14,5 25,3 25,9 22,3 20,2 24 13 42 23 WSW 1008,5 22 29 0,0
14.08.2018 12:00:00 20,8 14,6 21,6 24,3 22,0 20,2 16 9 29 16 SW 1008,3 7 1 0,0
14.08.2018 11:00:00 20,8 14,6 23,9 24,4 21,8 20,1 16 9 29 16 SW 1008,1 7 37 0,0
14.08.2018 10:00:00 19,7 14,8 22,8 21,7 21,7 20,1 16 9 32 17 SW 1008,0 8 9 0,0
14.08.2018 09:00:00 18,8 14,7 21,0 20,7 21,8 20,1 16 9 29 16 WSW 1007,8 7 20 0,0
14.08.2018 08:00:00 18,0 15,5 18,7 19,4 22,0 20,1 11 6 18 10 SW 1007,4 6 1 0,0
14.08.2018 07:00:00 16,9 14,7 16,4 19,0 22,2 20,1 10 5 16 9 SW 1006,9 17 0 0,0
14.08.2018 06:00:00 16,8 14,4 15,7 19,2 22,5 20,1 8 5 13 7 SSW 1006,5 25 0 0,0
14.08.2018 05:00:00 16,3 13,9 15,0 19,3 22,8 20,1 7 4 14 8 SSW 1006,4 29 0 0,0
14.08.2018 04:00:00 17,5 13,8 16,2 19,9 23,1 20,1 10 6 15 8 S 1006,3 32 0 0,0
14.08.2018 03:00:00 18,2 13,3 16,8 20,4 23,4 20,1 10 6 14 8 S 1006,3 35 0 0,0
14.08.2018 02:00:00 18,8 13,2 16,3 21,2 23,7 20,1 9 5 15 8 SSW 1006,2 36 0 0,0
14.08.2018 01:00:00 20,1 13,5 19,1 22,1 24,0 20,2 7 4 11 6 SSW 1006,3 37 0 0,0
14.08.2018 00:00:00 20,4 13,3 19,1 22,5 24,3 20,2 5 3 9 5 SSW 1006,2 38 0 0,0
13.08.2018 23:00:00 20,4 13,3 18,0 23,0 24,6 20,2 4 2 13 7 SSW 1006,2 39 0 0,0
13.08.2018 22:00:00 21,7 14,9 20,3 24,2 24,8 20,2 8 5 13 7 WSW 1006,1 37 0 0,0
13.08.2018 21:00:00 22,6 13,5 21,5 25,2 25,1 20,2 5 3 15 8 WSW 1006,0 49 0 0,0
13.08.2018 20:00:00 25,4 12,0 24,3 26,4 25,2 20,2 9 5 26 14 SW 1005,8 46 0 0,0
13.08.2018 19:00:00 25,7 15,0 25,5 28,1 25,2 20,2 11 6 20 11 WSW 1005,9 39 0 0,0
13.08.2018 18:00:00 25,9 15,8 26,9 29,7 25,1 20,2 5 3 23 13 NE 1005,8 41 36 0,0
13.08.2018 17:00:00 26,2 13,9 27,6 30,2 24,8 20,2 13 7 27 15 ENE 1006,1 52 31 0,0
13.08.2018 16:00:00 27,1 12,2 29,6 32,2 24,3 20,2 18 10 29 16 ENE 1006,5 21 56 0,0
13.08.2018 15:00:00 25,2 14,3 27,5 31,5 23,8 20,2 15 8 28 15 ENE 1007,0 29 46 0,0
13.08.2018 14:00:00 26,0 12,6 29,3 30,9 23,2 20,2 19 10 27 15 ENE 1007,7 30 58 0,0
13.08.2018 13:00:00 24,3 15,0 27,7 29,7 22,5 20,3 18 10 27 14 ENE 1008,0 27 55 0,0
13.08.2018 12:00:00 22,9 15,2 25,7 29,2 21,9 20,3 17 9 25 14 ENE 1008,6 34 54 0,0
13.08.2018 11:00:00 23,6 13,5 26,9 27,5 21,4 20,3 13 7 19 10 ENE 1009,1 40 60 0,0
13.08.2018 10:00:00 22,2 11,8 24,8 23,9 21,1 20,3 9 5 16 9 ENE 1009,4 34 17 0,0
13.08.2018 09:00:00 20,7 10,5 22,1 22,0 21,0 20,3 10 5 17 9 ESE 1009,6 34 38 0,0
13.08.2018 08:00:00 19,5 13,2 20,8 19,4 21,1 20,3 5 3 14 8 ESE 1009,8 30 30 0,0
13.08.2018 07:00:00 17,6 12,8 16,5 18,8 21,3 20,3 8 4 18 10 E 1009,6 39 0 0,0
13.08.2018 06:00:00 17,8 13,4 17,0 19,0 21,5 20,3 9 5 22 12 E 1010,1 36 0 0,0
13.08.2018 05:00:00 18,6 14,1 17,7 19,3 21,7 20,3 11 6 25 14 E 1010,3 38 0 0,0
13.08.2018 04:00:00 19,0 14,5 18,3 19,5 21,9 20,3 14 8 24 13 ENE 1010,8 42 0 0,0
13.08.2018 03:00:00 19,3 14,0 18,5 19,8 22,1 20,4 13 7 25 14 E 1011,0 44 0 0,0
13.08.2018 02:00:00 18,9 15,0 18,1 20,2 22,4 20,4 17 9 24 13 ENE 1011,4 39 0 0,0
13.08.2018 01:00:00 19,2 15,1 18,8 20,8 22,6 20,4 11 6 21 11 ENE 1012,1 37 0 0,0
13.08.2018 00:00:00 19,6 14,9 19,2 21,0 22,9 20,4 11 6 22 12 ENE 1012,2 38 0 0,0
12.08.2018 23:00:00 19,9 15,5 19,4 21,5 23,1 20,4 13 7 22 12 NE 1012,3 34 0 0,0
12.08.2018 22:00:00 18,0 11,1 16,0 22,1 23,4 20,5 2 1 4 2 SSE 1012,5 43 0 0,0
12.08.2018 21:00:00 19,6 11,4 18,7 23,5 23,6 20,5 2 1 7 4 SSE 1012,9 48 0 0,0
12.08.2018 20:00:00 22,1 8,8 21,2 24,8 23,7 20,5 5 3 18 10 SSW 1013,1 46 0 0,0
12.08.2018 19:00:00 22,5 9,1 23,0 26,6 23,6 20,5 8 5 23 12 SW 1013,6 49 3 0,0
12.08.2018 18:00:00 23,2 8,1 25,0 28,3 23,3 20,5 12 6 35 19 W 1013,9 46 32 0,0
12.08.2018 17:00:00 23,0 8,4 26,4 29,7 22,8 20,6 14 8 34 19 WSW 1014,6 33 50 0,0
12.08.2018 16:00:00 23,8 8,7 27,7 29,2 22,2 20,6 16 9 35 19 W 1015,3 21 54 0,0
12.08.2018 15:00:00 22,8 8,1 27,0 28,5 21,6 20,6 21 11 36 19 WSW 1015,8 23 54 0,0
12.08.2018 14:00:00 22,4 8,1 26,5 28,3 20,9 20,6 21 11 40 22 SSW 1016,5 19 59 0,0
12.08.2018 13:00:00 21,4 7,5 26,0 27,1 20,2 20,6 19 11 40 21 SW 1017,0 32 57 0,0
12.08.2018 12:00:00 20,4 10,2 24,6 24,4 19,7 20,7 22 12 32 18 WSW 1017,7 33 47 0,0
12.08.2018 11:00:00 20,1 10,9 25,0 22,6 19,1 20,7 19 10 37 20 W 1017,9 34 48 0,0
12.08.2018 10:00:00 18,3 10,5 21,9 20,5 18,8 20,7 20 11 32 17 WSW 1018,2 21 59 0,0
12.08.2018 09:00:00 16,8 11,8 19,7 17,9 18,7 20,7 16 9 29 16 WSW 1018,3 26 59 0,0
12.08.2018 08:00:00 14,3 11,5 16,2 15,3 18,8 20,7 15 8 28 15 SW 1018,5 26 46 0,0
12.08.2018 07:00:00 13,2 10,9 14,0 14,2 19,1 20,7 15 8 24 13 SW 1018,2 30 31 0,0
12.08.2018 06:00:00 12,0 10,5 11,2 13,7 19,4 20,8 14 7 22 12 SW 1018,2 35 0 0,0
12.08.2018 05:00:00 12,0 10,5 10,8 14,0 19,7 20,8 12 6 19 11 SW 1018,2 36 0 0,0
12.08.2018 04:00:00 12,3 10,5 11,0 14,5 20,0 20,8 13 7 21 11 SW 1018,3 39 0 0,0
12.08.2018 03:00:00 13,0 10,6 11,7 15,0 20,3 20,8 13 7 23 13 SW 1018,4 42 0 0,0
12.08.2018 02:00:00 13,7 10,7 12,3 15,4 20,7 20,8 15 8 26 14 SW 1018,3 41 0 0,0
12.08.2018 01:00:00 13,9 10,5 12,5 15,9 21,0 20,9 16 9 23 13 WSW 1018,4 45 0 0,0
12.08.2018 00:00:00 13,8 10,0 12,4 16,6 21,4 20,9 12 7 23 12 SW 1018,4 45 0 0,0
11.08.2018 23:00:00 15,2 10,0 13,6 17,4 21,8 20,9 15 8 34 18 WSW 1018,6 53 0 0,0
11.08.2018 22:00:00 16,0 9,7 14,7 18,2 22,1 20,9 18 10 36 19 WSW 1018,4 51 0 0,0
11.08.2018 21:00:00 16,8 9,3 15,6 19,5 22,4 20,9 19 11 46 25 WSW 1017,7 53 11 0,0
11.08.2018 20:00:00 17,9 9,1 17,2 21,3 22,6 21,0 26 14 43 23 WSW 1017,3 34 50 0,0
11.08.2018 19:00:00 17,7 10,5 17,7 22,3 22,7 21,0 18 10 41 22 WSW 1017,1 51 9 0,0
11.08.2018 18:00:00 20,0 9,1 21,2 24,4 22,5 21,0 27 14 48 26 WSW 1017,0 20 40 0,0
11.08.2018 17:00:00 16,9 11,3 18,2 24,8 22,2 21,0 23 12 51 27 W 1017,5 33 31 0,0
11.08.2018 16:00:00 20,1 8,4 21,7 26,4 21,7 21,0 22 12 48 26 WSW 1016,8 37 40 0,0
11.08.2018 15:00:00 20,8 9,3 24,9 26,1 21,3 21,1 21 12 45 24 SW 1017,3 12 45 0,0
11.08.2018 14:00:00 19,1 9,1 21,4 24,0 21,0 21,1 29 16 43 23 WSW 1017,8 22 10 0,0
11.08.2018 13:00:00 18,8 10,6 18,6 23,5 20,5 21,1 22 12 37 20 WSW 1018,0 18 9 0,0
11.08.2018 12:00:00 20,1 9,7 21,9 23,3 20,1 21,1 23 12 41 22 SW 1017,8 24 31 0,0
11.08.2018 11:00:00 21,3 10,0 24,4 21,7 19,7 21,1 18 10 31 17 SW 1017,7 45 31 0,0
11.08.2018 10:00:00 20,4 12,2 23,4 19,4 19,5 21,1 13 7 24 13 SSW 1017,6 30 35 0,0
11.08.2018 09:00:00 17,1 12,5 17,2 16,7 19,6 21,2 14 8 24 13 S 1018,0 33 0 0,0
11.08.2018 08:00:00 16,1 11,7 16,0 15,7 19,7 21,2 16 9 24 13 SSE 1018,3 43 0 0,0
11.08.2018 07:00:00 15,2 10,3 14,6 15,0 19,9 21,2 13 7 21 11 S 1018,5 44 3 0,0
11.08.2018 06:00:00 14,4 9,7 13,7 14,7 20,2 21,2 13 7 19 11 SSE 1019,1 45 0 0,0
11.08.2018 05:00:00 14,6 9,4 13,8 14,9 20,4 21,2 15 8 23 13 S 1019,7 46 0 0,0
11.08.2018 04:00:00 14,8 9,4 14,1 15,0 20,8 21,2 13 7 19 10 S 1020,2 48 0 0,0
11.08.2018 03:00:00 13,3 9,3 11,4 14,7 21,2 21,2 11 6 14 8 S 1020,7 42 0 0,0
11.08.2018 02:00:00 13,3 9,7 11,3 15,2 21,6 21,2 9 5 13 7 SSE 1021,1 41 0 0,0
11.08.2018 01:00:00 12,7 9,6 9,3 15,9 22,0 21,2 8 4 11 6 S 1021,6 41 0 0,0
11.08.2018 00:00:00 13,2 10,2 10,0 16,6 22,5 21,3 7 4 10 5 S 1021,7 40 0 0,0
10.08.2018 23:00:00 13,6 10,7 10,6 17,5 22,9 21,3 8 4 11 6 S 1021,7 34 0 0,0
10.08.2018 22:00:00 14,2 11,3 11,4 18,8 23,3 21,3 6 3 8 4 S 1021,6 44 0 0,0
10.08.2018 21:00:00 17,6 11,8 13,3 20,6 23,5 21,3 3 2 7 4 S 1021,3 57 19 0,0
10.08.2018 20:00:00 21,0 11,5 19,7 22,4 23,6 21,3 5 3 16 9 WNW 1020,9 60 47 0,0
10.08.2018 19:00:00 21,3 10,8 20,7 23,4 23,6 21,3 8 4 27 15 WSW 1020,8 64 33 0,0
10.08.2018 18:00:00 22,7 10,7 23,9 24,3 23,5 21,3 15 8 29 16 WSW 1020,8 41 43 0,0

tt = temperature
td = dewpoint
tt 5cm = temperature 5cm
tt -5cm = temperature -5cm
tt -20cm = temperature -20cm
tt -100cm = temperature -100cm
ff = wind speed
fx = gusts
dd = wind direction
ppp = reduced air pressure
vv = visibility
sd = sunshine duration
rr = precipitation

Next stations